SSEC Globe Logo

Space Science and Engineering Center

Surface Aviation Observations

KAIG 160315Z AUTO 31003KT 10SM CLR 13/13 A3006 RMK AO2
     T01300128=
KAIG 160315Z AUTO 31003KT 10SM CLR 13/13 A3006 RMK AO2
     T01300128=
KAIG 160255Z AUTO 31003KT 10SM CLR 14/13 A3006 RMK AO2
     T01370129=
KAIG 160255Z AUTO 31003KT 10SM CLR 14/13 A3006 RMK AO2
     T01370129=
KC29 160315Z AUTO 08005KT 10SM CLR 19/18 A2998 RMK AO1
     T01940175=
KC29 160315Z AUTO 08005KT 10SM CLR 19/18 A2998 RMK AO1
     T01940175=
KC29 160255Z AUTO 09006KT 10SM SCT010 20/18 A2998 RMK AO1
     T01970179=
KC29 160255Z AUTO 09006KT 10SM SCT010 20/18 A2998 RMK AO1
     T01970179=
KBCK 160315Z AUTO 00000KT M1/4SM FG OVC002 11/11 A3002 RMK
     AO2 T01120110=
KBCK 160315Z AUTO 00000KT M1/4SM FG OVC002 11/11 A3002 RMK
     AO2 T01120110=
KBCK 160255Z AUTO 00000KT M1/4SM FG BKN002 12/11 A3002 RMK
     AO2 T01190114=
KBCK 160255Z AUTO 00000KT M1/4SM FG BKN002 12/11 A3002 RMK
     AO2 T01190114=
KUBE 160315Z AUTO 18004KT 10SM CLR 16/13 A3002 RMK AO2=
KUBE 160315Z AUTO 18004KT 10SM CLR 16/13 A3002 RMK AO2=
KUBE 160255Z AUTO 17004KT 10SM CLR 16/13 A3001 RMK AO2=
KUBE 160255Z AUTO 17004KT 10SM CLR 16/13 A3001 RMK AO2=
KPVB 160315Z AUTO 36005KT 10SM BKN120 19/19 A2998 RMK AO1
     T01900190=
KPVB 160315Z AUTO 36005KT 10SM BKN120 19/19 A2998 RMK AO1
     T01900190=
KPVB 160255Z AUTO 05003KT 10SM BKN120 20/20 A2998 RMK AO1
     T01950195=
KPVB 160255Z AUTO 05003KT 10SM BKN120 20/20 A2998 RMK AO1
     T01950195=
KEZS 160315Z AUTO 00000KT 10SM CLR 18/17 A3002 RMK AO2
     T01770167=
KEZS 160315Z AUTO 00000KT 10SM CLR 18/17 A3002 RMK AO2
     T01770167=
KEZS 160255Z AUTO 00000KT 10SM CLR 18/17 A3002 RMK AO2
     T01750165=
KEZS 160255Z AUTO 00000KT 10SM CLR 18/17 A3002 RMK AO2
     T01750165=
KARV 160315Z AUTO 00000KT 10SM CLR 17/15 A3004 RMK AO2
     T01660147=
KARV 160315Z AUTO 00000KT 10SM CLR 17/15 A3004 RMK AO2
     T01660147=
KARV 160255Z AUTO 00000KT 10SM CLR 17/15 A3004 RMK AO2
     T01680147=
KARV 160255Z AUTO 00000KT 10SM CLR 17/15 A3004 RMK AO2
     T01680147=
KASX 160253Z AUTO 20005KT 10SM FEW075 19/14 A2997 RMK AO2
     SLP146 T01890144 53008=
KASX 160253Z AUTO 20005KT 10SM FEW075 19/14 A2997 RMK AO2
     SLP146 T01890144 53008=
KATW 160245Z VRB04KT 10SM -DZ SCT006 BKN110 17/17 A2999=
KATW 160245Z VRB04KT 10SM -DZ SCT006 BKN110 17/17 A2999=
KAUW 160254Z AUTO 00000KT 8SM CLR 16/14 A3004 RMK AO2 SLP173
     T01560139 53012=
KAUW 160254Z AUTO 00000KT 8SM CLR 16/14 A3004 RMK AO2 SLP173
     T01560139 53012=
KBUU 160315Z AUTO 00000KT 10SM SCT004 OVC050 19/19 A2999 RMK
     AO2 T01920188 PWINO=
KBUU 160255Z AUTO 00000KT 10SM SCT036 SCT042 OVC048 19/18
     A3000 RMK AO2 60016 T01900183 PWINO=
KBUU 160255Z AUTO 00000KT 10SM SCT036 SCT042 OVC048 19/18
     A3000 RMK AO2 60016 T01900183 PWINO=
KCLI 160315Z AUTO 00000KT 10SM CLR 17/15 A3002 RMK AO2
     T01670146=
KCLI 160315Z AUTO 00000KT 10SM CLR 17/15 A3002 RMK AO2
     T01670146=
KCLI 160255Z AUTO 00000KT 10SM CLR 17/15 A3001 RMK AO2
     T01740145=
KCLI 160255Z AUTO 00000KT 10SM CLR 17/15 A3001 RMK AO2
     T01740145=
KCMY 160315Z AUTO 00000KT 10SM CLR 12/12 A3003 RMK AO2
     T01220120=
KCMY 160315Z AUTO 00000KT 10SM CLR 12/12 A3003 RMK AO2
     T01220120=
KCMY 160255Z AUTO 00000KT 10SM CLR 14/13 A3003 RMK AO2
     T01350132=
KCMY 160255Z AUTO 00000KT 10SM CLR 14/13 A3003 RMK AO2
     T01350132=
KCWA 160315Z AUTO 34004KT 10SM CLR 12/11 A3006 RMK AO2=
KCWA 160315Z AUTO 34004KT 10SM CLR 12/11 A3006 RMK AO2=
KCWA 160255Z AUTO 34005KT 10SM CLR 14/12 A3005 RMK AO2=
KCWA 160255Z AUTO 34005KT 10SM CLR 14/12 A3005 RMK AO2=
KCWA 160250Z 34004KT 10SM SCT120 14/13 A3005=
KCWA 160250Z 34004KT 10SM SCT120 14/13 A3005=
KDLL 160315Z AUTO 00000KT 10SM OVC012 18/17 A3000 RMK AO2
     T01750170=
KDLL 160315Z AUTO 00000KT 10SM OVC012 18/17 A3000 RMK AO2
     T01750170=
KDLL 160255Z AUTO 08003KT 10SM OVC010 18/17 A3000 RMK AO2
     T01750170=
KDLL 160255Z AUTO 08003KT 10SM OVC010 18/17 A3000 RMK AO2
     T01750170=
KEAU 160256Z AUTO 17005KT 10SM CLR 19/14 A3002 RMK AO2
     SLP163 T01890144 53012=
KEAU 160256Z AUTO 17005KT 10SM CLR 19/14 A3002 RMK AO2
     SLP163 T01890144 53012=
KEFT 160315Z AUTO 06006KT 10SM OVC004 19/18 A2997 RMK AO2
     T01870180=
KEFT 160315Z AUTO 06006KT 10SM OVC004 19/18 A2997 RMK AO2
     T01870180=
KEFT 160255Z AUTO 04004KT 10SM BKN004 19/18 A2998 RMK AO2
     60003 T01850176=
KEFT 160255Z AUTO 04004KT 10SM BKN004 19/18 A2998 RMK AO2
     60003 T01850176=
KEGV 160315Z AUTO 00000KT 5SM BR SCT002 15/15 A3005 RMK AO2
     T01490149=
KEGV 160315Z AUTO 00000KT 5SM BR SCT002 15/15 A3005 RMK AO2
     T01490149=
KEGV 160255Z AUTO 00000KT 10SM CLR 16/16 A3004 RMK AO2
     T01610161=
KEGV 160255Z AUTO 00000KT 10SM CLR 16/16 A3004 RMK AO2
     T01610161=
KENW 160253Z AUTO 03004KT 10SM FEW007 BKN070 OVC085 21/19
     A2999 RMK AO2 RAE18 SLP152 P0000 60043 T02060189 51004=
KENW 160253Z AUTO 03004KT 10SM FEW007 BKN070 OVC085 21/19
     A2999 RMK AO2 RAE18 SLP152 P0000 60043 T02060189 51004=
KENW 160250Z AUTO 03003KT 10SM FEW007 BKN070 OVC085 21/19
     A2999 RMK AO2 RAE18 P0000=
KETB 160315Z AUTO 08006KT 10SM -DZ SCT006 SCT048 OVC055
     17/17 A3001 RMK AO2 P0002=
KETB 160255Z AUTO 06005KT 10SM RA SCT006 BKN047 OVC055 17/17
     A3002 RMK AO2 P0006=
KETB 160255Z AUTO 06005KT 10SM RA SCT006 BKN047 OVC055 17/17
     A3002 RMK AO2 P0006=
KFLD 160253Z AUTO 12006KT 10SM -RA FEW075 SCT120 19/17 A3001
     RMK AO2 RAB25 SLP160 P0001 60007 T01890172 55001 TSNO=
KFLD 160253Z AUTO 12006KT 10SM -RA FEW075 SCT120 19/17 A3001
     RMK AO2 RAB25 SLP160 P0001 60007 T01890172 55001 TSNO=
KGRB 160253Z AUTO 11006KT 10SM BKN110 18/17 A2999 RMK AO2
     RAB00E51 SLP156 P0001 60002 T01780167 58016=
KGRB 160253Z AUTO 11006KT 10SM BKN110 18/17 A2999 RMK AO2
     RAB00E51 SLP156 P0001 60002 T01780167 58016=
KHYR 160253Z AUTO 20004KT 10SM CLR 18/14 A3000 RMK AO2
     SLP158 T01830144 53007=
KHYR 160253Z AUTO 20004KT 10SM CLR 18/14 A3000 RMK AO2
     SLP158 T01830144 53007=
KISW 160254Z AUTO 35003KT 10SM CLR 16/14 A3003 RMK AO2
     SLP166 60000 T01610144 55007=
KISW 160254Z AUTO 35003KT 10SM CLR 16/14 A3003 RMK AO2
     SLP166 60000 T01610144 55007=
KJVL 160315Z AUTO 00000KT 10SM SCT020 SCT026 OVC041 17/17
     A2997 RMK AO2=
KJVL 160315Z AUTO 00000KT 10SM SCT020 SCT026 OVC041 17/17
     A2997 RMK AO2=
KJVL 160255Z AUTO 10005KT 5SM RA BKN016 BKN024 OVC031 17/17
     A2997 RMK AO2=
KJVL 160255Z AUTO 10005KT 5SM RA BKN016 BKN024 OVC031 17/17
     A2997 RMK AO2=
KLNL 160315Z AUTO 00000KT 10SM CLR 15/15 A3006 RMK AO2
     T01510147=
KLNL 160315Z AUTO 00000KT 10SM CLR 15/15 A3006 RMK AO2
     T01510147=
KLNL 160255Z AUTO 00000KT 10SM CLR 15/14 A3005 RMK AO2
     T01510143=
KLNL 160255Z AUTO 00000KT 10SM CLR 15/14 A3005 RMK AO2
     T01510143=
KLNR 160256Z AUTO 02004KT 10SM BKN012 20/18 A2998 RMK AO2
     SLP145 T02000183 53002=
KLNR 160256Z AUTO 02004KT 10SM BKN012 20/18 A2998 RMK AO2
     SLP145 T02000183 53002=
KLNR 160245Z AUTO 02003KT 10SM BKN010 BKN015 20/18 A2999 RMK
     AO2 CIG 010V013 T02000183=
KLSE 160253Z AUTO 34006KT 10SM CLR 17/16 A3000 RMK AO2
     SLP155 T01720156 53007 $=
KLSE 160253Z AUTO 34006KT 10SM CLR 17/16 A3000 RMK AO2
     SLP155 T01720156 53007 $=
KLUM 160315Z AUTO 12003KT 10SM CLR 16/14 A3003 RMK AO2
     T01600143=
KLUM 160315Z AUTO 12003KT 10SM CLR 16/14 A3003 RMK AO2
     T01600143=
KLUM 160255Z AUTO 12004KT 10SM CLR 16/15 A3003 RMK AO2
     T01620146=
KLUM 160255Z AUTO 12004KT 10SM CLR 16/15 A3003 RMK AO2
     T01620146=
KMDZ 160315Z AUTO 00000KT 2SM BR CLR 14/14 A3006 RMK AO2
     T01360136=
KMDZ 160315Z AUTO 00000KT 2SM BR CLR 14/14 A3006 RMK AO2
     T01360136=
KMDZ 160255Z AUTO 00000KT 7SM CLR 14/14 A3006 RMK AO2
     T01410141=
KMDZ 160255Z AUTO 00000KT 7SM CLR 14/14 A3006 RMK AO2
     T01410141=
KMFI 160254Z AUTO 36005KT 10SM CLR 13/12 A3004 RMK AO2
     SLP171 T01330122 53001=
KMFI 160254Z AUTO 36005KT 10SM CLR 13/12 A3004 RMK AO2
     SLP171 T01330122 53001=
KMKE 160252Z 06009KT 10SM -RA FEW025 BKN039 OVC060 21/19
     A3000 RMK AO2 SLP153 P0002 60061 T02110189 51014=
KMKE 160252Z 06009KT 10SM -RA FEW025 BKN039 OVC060 21/19
     A3000 RMK AO2 SLP153 P0002 60061 T02110189 51014=
KMRJ 160315Z AUTO 03003KT 10SM OVC007 19/18 A2998 RMK AO2=
KMRJ 160315Z AUTO 03003KT 10SM OVC007 19/18 A2998 RMK AO2=
KMRJ 160255Z AUTO 04003KT 10SM BKN007 BKN110 19/18 A2999 RMK
     AO2=
KMRJ 160255Z AUTO 04003KT 10SM BKN007 BKN110 19/18 A2999 RMK
     AO2=
KMSN 160253Z 10011KT 10SM FEW009 SCT070 19/18 A2997 RMK AO2
     PRESFR SLP144 T01890183 58005=
KMSN 160253Z 10011KT 10SM FEW009 SCT070 19/18 A2997 RMK AO2
     PRESFR SLP144 T01890183 58005=
KMTW 160256Z AUTO 11006KT 10SM -RA OVC090 18/18 A3002 RMK
     AO2 SLP164 P0001 60029 T01780178 58004=
KMTW 160256Z AUTO 11006KT 10SM -RA OVC090 18/18 A3002 RMK
     AO2 SLP164 P0001 60029 T01780178 58004=
KMWC 160315Z AUTO 04007KT 5SM RA OVC004 18/17 A3002 RMK AO2
     P0001=
KMWC 160315Z AUTO 04007KT 5SM RA OVC004 18/17 A3002 RMK AO2
     P0001=
KMWC 160255Z AUTO 03008KT 10SM OVC004 18/17 A3002 RMK AO2
     P0003=
KMWC 160255Z AUTO 03008KT 10SM OVC004 18/17 A3002 RMK AO2
     P0003=
KOEO 160315Z AUTO 00000KT 10SM CLR 18/14 A3003 RMK AO2
     T01840143=
KOEO 160255Z AUTO 00000KT 10SM CLR 19/15 A3003 RMK AO2
     T01930147=
KOEO 160255Z AUTO 00000KT 10SM CLR 19/15 A3003 RMK AO2
     T01930147=
KOSH 160318Z AUTO 11008KT 10SM BKN007 OVC095 19/18 A2998 RMK
     AO2 T01890178 TSNO=
KOSH 160253Z 13012KT 10SM FEW007 BKN095 BKN120 19/18 A2997
     RMK AO2 RAE53 SLP141 P0002 60011 T01890178 58014=
KOSH 160253Z 13012KT 10SM FEW007 BKN095 BKN120 19/18 A2997
     RMK AO2 RAE53 SLP141 P0002 60011 T01890178 58014=
KOVS 160317Z AUTO 00000KT 10SM BKN016 20/18 A2999 RMK AO2
     T02000183=
KOVS 160253Z AUTO 00000KT 10SM FEW012 20/18 A2999 RMK AO2
     SLP155 T02000183 52011=
KOVS 160253Z AUTO 00000KT 10SM FEW012 20/18 A2999 RMK AO2
     SLP155 T02000183 52011=
KPBH 160315Z AUTO 19004KT 10SM CLR 17/17 A3004 RMK AO2
     T01710168=
KPBH 160315Z AUTO 19004KT 10SM CLR 17/17 A3004 RMK AO2
     T01710168=
KPBH 160255Z AUTO 20004KT 10SM CLR 18/17 A3003 RMK AO2
     T01750169=
KPBH 160255Z AUTO 20004KT 10SM CLR 18/17 A3003 RMK AO2
     T01750169=
KPCZ 160315Z AUTO 00000KT 10SM BKN023 BKN120 19/17 A3002 RMK
     AO2 T01850170=
KPCZ 160315Z AUTO 00000KT 10SM BKN023 BKN120 19/17 A3002 RMK
     AO2 T01850170=
KPCZ 160255Z AUTO 00000KT 10SM SCT023 BKN120 19/17 A3002 RMK
     AO2 T01850168=
KPCZ 160255Z AUTO 00000KT 10SM SCT023 BKN120 19/17 A3002 RMK
     AO2 T01850168=
KPDC 160315Z AUTO 00000KT 10SM CLR 19/18 A2998 RMK AO2
     T01900175=
KPDC 160315Z AUTO 00000KT 10SM CLR 19/18 A2998 RMK AO2
     T01900175=
KPDC 160255Z AUTO 00000KT 10SM SCT011 20/18 A2999 RMK AO2
     T01950175=
KPDC 160255Z AUTO 00000KT 10SM SCT011 20/18 A2999 RMK AO2
     T01950175=
KRAC 160253Z AUTO 03007KT 10SM OVC065 21/19 A3001 RMK AO2
     RAE36 SLP157 P0002 60042 T02060194 51003=
KRAC 160253Z AUTO 03007KT 10SM OVC065 21/19 A3001 RMK AO2
     RAE36 SLP157 P0002 60042 T02060194 51003=
KRCX 160315Z AUTO 17005KT 10SM CLR 18/17 A3005 RMK AO2
     T01800167=
KRCX 160315Z AUTO 17005KT 10SM CLR 18/17 A3005 RMK AO2
     T01800167=
KRCX 160255Z AUTO 16005KT 10SM CLR 19/17 A3004 RMK AO2
     T01860168=
KRCX 160255Z AUTO 16005KT 10SM CLR 19/17 A3004 RMK AO2
     T01860168=
KRHI 160253Z AUTO 21004KT 10SM CLR 17/14 A3006 RMK AO2
     SLP176 T01670144 53010=
KRHI 160253Z AUTO 21004KT 10SM CLR 17/14 A3006 RMK AO2
     SLP176 T01670144 53010=
KRNH 160315Z AUTO 00000KT 10SM CLR 17/13 A3002 RMK AO2
     T01700132=
KRNH 160255Z AUTO 00000KT 10SM CLR 18/13 A3001 RMK AO2
     T01750132=
KRNH 160255Z AUTO 00000KT 10SM CLR 18/13 A3001 RMK AO2
     T01750132=
KRPD 160315Z AUTO 00000KT 10SM CLR 18/15 A3002 RMK AO2
     T01770153=
KRPD 160315Z AUTO 00000KT 10SM CLR 18/15 A3002 RMK AO2
     T01770153=
KRPD 160255Z AUTO 16003KT 10SM CLR 18/16 A3002 RMK AO2
     T01760157=
KRPD 160255Z AUTO 16003KT 10SM CLR 18/16 A3002 RMK AO2
     T01760157=
KRRL 160315Z AUTO 00000KT 10SM CLR 15/15 A3006 RMK AO2
     T01470147 TSNO=
KRRL 160315Z AUTO 00000KT 10SM CLR 15/15 A3006 RMK AO2
     T01470147 TSNO=
KRRL 160255Z AUTO 00000KT 10SM CLR 15/15 A3006 RMK AO2
     T01530149 TSNO=
KRRL 160255Z AUTO 00000KT 10SM CLR 15/15 A3006 RMK AO2
     T01530149 TSNO=
KRYV 160315Z AUTO 09008KT 10SM OVC070 18/18 A2999 RMK AO2
     T01830183=
KRYV 160315Z AUTO 09008KT 10SM OVC070 18/18 A2999 RMK AO2
     T01830183=
KRYV 160255Z AUTO 09007KT 5SM -DZ SCT007 SCT010 OVC070 19/19
     A3000 RMK AO2 P0015 60034 T01850185=
KRYV 160255Z AUTO 09007KT 5SM -DZ SCT007 SCT010 OVC070 19/19
     A3000 RMK AO2 P0015 60034 T01850185=
KRZN 160315Z AUTO 18006KT 10SM CLR 20/14 A3000 RMK AO2
     T01950137=
KRZN 160315Z AUTO 18006KT 10SM CLR 20/14 A3000 RMK AO2
     T01950137=
KRZN 160255Z AUTO 19005KT 10SM CLR 20/14 A3000 RMK AO2
     T02020137=
KRZN 160255Z AUTO 19005KT 10SM CLR 20/14 A3000 RMK AO2
     T02020137=
KSBM 160315Z AUTO 08008KT 7SM -RA BKN004 OVC043 19/18 A3002
     RMK AO2 P0001 T01940183=
KSBM 160253Z AUTO 10004KT 10SM -RA OVC005 19/18 A3003 RMK
     AO2 SLP168 P0001 60011 T01890183 53008=
KSBM 160253Z AUTO 10004KT 10SM -RA OVC005 19/18 A3003 RMK
     AO2 SLP168 P0001 60011 T01890183 53008=
KSTE 160315Z AUTO 34004KT 10SM CLR 15/15 A3004 RMK AO2
     T01450145=
KSTE 160315Z AUTO 34004KT 10SM CLR 15/15 A3004 RMK AO2
     T01450145=
KSTE 160255Z AUTO 00000KT 10SM CLR 15/15 A3003 RMK AO2
     T01450145=
KSTE 160255Z AUTO 00000KT 10SM CLR 15/15 A3003 RMK AO2
     T01450145=
KSUE 160256Z AUTO 00000KT 10SM -RA OVC110 17/16 A3003 RMK
     AO2 SLP168 P0004 60004 T01670161 55001=
KSUE 160256Z AUTO 00000KT 10SM -RA OVC110 17/16 A3003 RMK
     AO2 SLP168 P0004 60004 T01670161 55001=
KSUW 160315Z AUTO 20005KT 10SM CLR 20/15 A2995 RMK AO2
     T01950145=
KSUW 160315Z AUTO 20005KT 10SM CLR 20/15 A2995 RMK AO2
     T01950145=
KSUW 160255Z AUTO 20006KT 10SM CLR 21/15 A2994 RMK AO2
     T02070147=
KSUW 160255Z AUTO 20006KT 10SM CLR 21/15 A2994 RMK AO2
     T02070147=
KTKV 160315Z AUTO 00000KT 10SM CLR 14/13 A3006 RMK AO2
     T01370133 PWINO=
KTKV 160315Z AUTO 00000KT 10SM CLR 14/13 A3006 RMK AO2
     T01370133 PWINO=
KTKV 160255Z AUTO 00000KT 10SM CLR 14/13 A3006 RMK AO2
     T01350130 PWINO=
KTKV 160255Z AUTO 00000KT 10SM CLR 14/13 A3006 RMK AO2
     T01350130 PWINO=
KUES 160315Z AUTO 04004KT 10SM OVC004 17/17 A3002 RMK AO2=
KUES 160315Z AUTO 04004KT 10SM OVC004 17/17 A3002 RMK AO2=
KUES 160255Z AUTO 10SM -RA OVC004 17/17 A3002 RMK AO2 P0002=
KUES 160255Z AUTO 10SM -RA OVC004 17/17 A3002 RMK AO2 P0002=
KUNU 160315Z AUTO 08005KT 10SM OVC006 18/18 A3000 RMK AO2
     T01800178=
KUNU 160315Z AUTO 08005KT 10SM OVC006 18/18 A3000 RMK AO2
     T01800178=
KUNU 160255Z AUTO 08003KT 10SM OVC006 18/18 A3001 RMK AO2
     60002 T01810180=
KUNU 160255Z AUTO 08003KT 10SM OVC006 18/18 A3001 RMK AO2
     60002 T01810180=
SPECI KVOK 160321Z AUTO 28003KT 3/8SM R27/2000V2800FT FG CLR
     14/14 A3001 RMK AO2 SLP165=
KVOK 160256Z AUTO 00000KT 10SM CLR 15/15 A3001 RMK AO2
     SLP165 T01530153 53003=
KVOK 160256Z AUTO 00000KT 10SM CLR 15/15 A3001 RMK AO2
     SLP165 T01530153 53003=
KVOK 160256Z AUTO 00000KT 10SM CLR 15/15 A3001 RMK AO2
     SLP165 T01530153 53003=
METAR KVOK 160256Z AUTO 00000KT 10SM CLR 15/15 A3001 RMK AO2
     SLP165 T01530153 53003=
METAR KVOK 160256Z AUTO 00000KT 10SM CLR 15/15 A3001 RMK AO2
     SLP165 T01530153 53003=
KY50 160312Z AUTO 35005KT 10SM OVC014 18/17 A3002 RMK AO2 $=
KY50 160256Z AUTO 06003KT 10SM BKN016 BKN110 18/17 A3001 RMK
     AO2 SLP158 T01830167 55004 $=
KY50 160256Z AUTO 06003KT 10SM BKN016 BKN110 18/17 A3001 RMK
     AO2 SLP158 T01830167 55004 $=
KY51 160315Z AUTO 00000KT 10SM CLR 16/16 A3002 RMK AO1
     T01570157=
KY51 160315Z AUTO 00000KT 10SM CLR 16/16 A3002 RMK AO1
     T01570157=
KY51 160255Z AUTO 00000KT 10SM CLR 16/16 A3002 RMK AO1
     T01610161=
KY51 160255Z AUTO 00000KT 10SM CLR 16/16 A3002 RMK AO1
     T01610161=
KY23 160315Z AUTO 18004KT 10SM CLR 18/16 A3002 RMK AO2
     T01760157=
KY23 160315Z AUTO 18004KT 10SM CLR 18/16 A3002 RMK AO2
     T01760157=
KY23 160255Z AUTO 17004KT 10SM CLR 18/16 A3002 RMK AO2
     T01760160=
KY23 160255Z AUTO 17004KT 10SM CLR 18/16 A3002 RMK AO2
     T01760160=
K3D2 160315Z AUTO 00000KT 10SM -RA OVC110 15/14 A3002 RMK
     AO2 P0001 T01460142=
K3D2 160315Z AUTO 00000KT 10SM -RA OVC110 15/14 A3002 RMK
     AO2 P0001 T01460142=
K3D2 160255Z AUTO 00000KT 10SM -RA OVC120 15/14 A3002 RMK
     AO2 P0002 60009 T01470143=
K3D2 160255Z AUTO 00000KT 10SM -RA OVC120 15/14 A3002 RMK
     AO2 P0002 60009 T01470143=
KD25 160315Z AUTO 16005KT 10SM CLR 16/16 A3003 RMK AO2 LTG
     DSNT N AND NE T01600160=
KD25 160315Z AUTO 16005KT 10SM CLR 16/16 A3003 RMK AO2 LTG
     DSNT N AND NE T01600160=
KD25 160255Z AUTO 17004KT 10SM CLR 16/16 A3003 RMK AO2 LTG
     DSNT N T01550155=
KD25 160255Z AUTO 17004KT 10SM CLR 16/16 A3003 RMK AO2 LTG
     DSNT N T01550155=
K82C 160315Z AUTO 31003KT 7SM CLR 16/16 A3000 RMK AO2
     T01630161=
K82C 160315Z AUTO 31003KT 7SM CLR 16/16 A3000 RMK AO2
     T01630161=
K82C 160255Z AUTO 00000KT 10SM CLR 17/17 A3000 RMK AO2
     T01710167=
K82C 160255Z AUTO 00000KT 10SM CLR 17/17 A3000 RMK AO2
     T01710167=
KOCQ 160315Z AUTO 00000KT 10SM SCT110 16/15 A3000 RMK AO1
     T01590147=
KOCQ 160315Z AUTO 00000KT 10SM SCT110 16/15 A3000 RMK AO1
     T01590147=
KOCQ 160255Z AUTO 00000KT 10SM SCT090 BKN110 16/14 A2999 RMK
     AO1 T01590144=
KOCQ 160255Z AUTO 00000KT 10SM SCT090 BKN110 16/14 A2999 RMK
     AO1 T01590144=
KC35 160315Z AUTO 02003KT 10SM OVC013 19/19 A3000 RMK AO2
     T01850185 PWINO=
KC35 160315Z AUTO 02003KT 10SM OVC013 19/19 A3000 RMK AO2
     T01850185 PWINO=
KC35 160255Z AUTO 05003KT 10SM OVC013 19/19 A3000 RMK AO2
     T01850185 PWINO=
KC35 160255Z AUTO 05003KT 10SM OVC013 19/19 A3000 RMK AO2
     T01850185 PWINO=
KOLG 160315Z AUTO 18003KT 10SM CLR 19/15 A2998 RMK AO1=
KOLG 160315Z AUTO 18003KT 10SM CLR 19/15 A2998 RMK AO1=
KOLG 160255Z AUTO 18003KT 10SM CLR 19/15 A2998 RMK AO1=
KOLG 160255Z AUTO 18003KT 10SM CLR 19/15 A2998 RMK AO1=
K2P2 160315Z AUTO 00000KT 10SM SCT090 OVC120 15/15 A3003 RMK
     AO2 T01520152=
K2P2 160315Z AUTO 00000KT 10SM SCT090 OVC120 15/15 A3003 RMK
     AO2 T01520152=
K2P2 160255Z AUTO 00000KT 10SM BKN120 15/15 A3002 RMK AO2
     T01520152=
K2P2 160255Z AUTO 00000KT 10SM BKN120 15/15 A3002 RMK AO2
     T01520152=
KDBQ 160253Z AUTO 04007KT 10SM BKN010 21/19 A2997 RMK AO2
     CIG 009V014 SLP144 T02060194 51003=
KDBQ 160253Z AUTO 04007KT 10SM BKN010 21/19 A2997 RMK AO2
     CIG 009V014 SLP144 T02060194 51003=
KRST 160254Z 00000KT 10SM CLR 16/12 A3004 RMK AO2 SLP170
     T01560122 53010=
KRST 160254Z 00000KT 10SM CLR 16/12 A3004 RMK AO2 SLP170
     T01560122 53010=
KMSP 160253Z 21003KT 10SM FEW250 22/14 A3000 RMK AO2 SLP155
     T02220139 53009=
KMSP 160253Z 21003KT 10SM FEW250 22/14 A3000 RMK AO2 SLP155
     T02220139 53009=
KRFD 160254Z 02009KT 10SM FEW048 BKN060 19/17 A2997 RMK AO2
     SLP143 60000 T01940172 58004=
KRFD 160254Z 02009KT 10SM FEW048 BKN060 19/17 A2997 RMK AO2
     SLP143 60000 T01940172 58004=
KORD 160251Z 02015KT 10SM -RA SCT025 BKN034 OVC048 19/17
     A2994 RMK AO2 SLP135 P0002 60029 T01940172 53002=
KORD 160251Z 02015KT 10SM -RA SCT025 BKN034 OVC048 19/17
     A2994 RMK AO2 SLP135 P0002 60029 T01940172 53002=